Location: Lake Crest
(37.6062°N, 88.9176°W)
Time: 14:13:56
(UTC+00:00)

USA 229 - Pass Details

Date: 15 December 2019
Orbit: 994 x 1218 km, 63.4° (Epoch: 19 January)

Event Time Altitude Azimuth Distance (km) Brightness Sun altitude
Rises 00:02:52 0° 333° (NNW) 3,953 6.8 -16.3°
Reaches altitude 10° 00:05:49 10° 342° (NNW) 3,026 6.1 -16.8°
Maximum altitude 00:12:23 36° 47° (NE) 1,786 4.4 -18.1°
Enters shadow 00:15:12 27° 86° (E) 2,092 4.6 -18.6°
